Theta_e
357 354 355 348 348 347 346 347 345 346 344 344 342 341 339 339 338 337 338 350 348 346 345 349 350 350 350 350 349 348 348 349 348 349 347 346 346 344 344 345 343 343 341
360 351 351 347 345 343 342 342 345 345 345 344 344 344 343 342 340 342 337 343 347 347 346 345 348 351 351 351 348 348 348 348 348 348 347 346 346 345 344 344 344 344 342
361 360 347 347 345 347 347 346 345 347 344 345 347 345 345 344 341 343 343 347 345 346 346 346 346 351 352 349 349 346 346 346 348 348 347 347 346 345 346 344 344 343 343
359 360 347 344 345 346 342 344 341 342 343 344 347 346 347 348 346 347 347 349 345 345 346 347 348 350 351 350 350 346 345 346 346 347 347 347 346 345 345 344 344 343 343
352 353 346 346 355 342 343 342 343 346 346 347 346 347 350 347 348 345 348 352 352 349 348 347 349 349 349 350 349 348 348 345 345 346 347 347 346 345 344 344 344 343 343
349 353 347 350 349 342 342 343 350 350 348 347 345 347 351 349 348 347 348 348 350 351 351 349 349 347 347 349 347 347 349 347 345 345 346 346 345 346 344 344 343 343 343
350 354 346 347 349 345 344 351 349 350 347 352 345 345 345 352 351 347 347 350 349 352 352 352 349 348 345 347 346 346 347 346 344 344 344 344 344 345 345 343 343 343 342
349 349 349 348 346 342 353 347 356 347 348 350 343 342 336 342 347 347 347 349 352 347 347 349 349 351 348 345 344 345 346 346 346 343 343 343 344 344 345 344 343 342 342
354 353 353 348 349 348 341 354 358 357 344 347 356 343 334 332 338 347 350 346 349 344 343 344 345 346 349 346 347 345 345 345 346 345 344 344 344 344 344 344 343 342 341
355 353 352 353 355 349 347 357 359 357 355 343 348 349 352 346 335 333 342 345 344 344 350 342 348 345 347 344 346 345 343 343 344 344 344 343 343 344 345 344 343 342 341
356 355 357 355 356 351 355 359 360 360 353 346 346 345 348 344 346 337 331 337 341 340 343 343 342 342 348 345 349 344 339 339 339 340 341 341 343 344 344 345 344 343 341
341 352 355 356 357 359 357 361 364 363 357 355 350 349 344 340 338 337 334 337 336 341 342 346 343 340 345 343 343 338 337 335 335 335 336 339 339 342 344 345 344 343 342
339 335 342 356 358 358 361 361 363 363 360 354 360 348 348 346 344 341 337 335 331 338 338 341 340 346 348 344 341 339 336 333 331 330 330 333 335 337 341 343 344 343 343
339 344 346 358 359 358 362 364 360 358 359 355 358 354 349 347 347 342 339 336 327 330 334 342 339 338 347 343 340 335 338 331 329 327 327 328 330 332 335 338 339 339 339
337 347 353 362 361 360 363 365 356 358 359 358 353 354 351 348 344 345 342 337 329 323 330 337 333 343 342 344 340 341 340 329 329 325 324 326 326 329 330 331 332 333 333
343 345 350 353 361 362 363 364 358 360 356 352 352 356 355 347 349 346 343 336 334 331 326 334 336 341 341 339 337 340 339 332 328 325 324 323 323 325 326 326 327 329 329
340 339 347 351 356 360 362 361 359 355 352 355 356 354 352 355 347 344 341 336 334 334 328 337 337 339 337 338 339 339 341 342 335 324 324 322 320 320 322 322 324 325 326
339 342 346 342 352 356 359 358 353 351 353 354 353 351 346 346 350 351 339 346 341 344 332 335 339 334 335 338 339 337 336 341 340 324 321 319 317 316 316 319 319 319 319
340 342 341 343 348 354 356 356 353 354 355 353 350 348 348 348 347 347 342 341 337 338 341 332 335 333 334 335 333 332 334 336 334 324 319 318 317 316 316 315 315 315 314
338 340 342 341 346 350 351 353 353 355 354 351 353 351 347 346 345 344 342 342 341 338 338 336 334 333 331 333 331 328 328 331 331 334 325 323 319 317 316 315 316 316 313
341 340 342 344 348 350 349 353 354 354 354 352 351 347 351 343 334 337 339 341 341 335 337 335 332 331 329 328 328 329 328 327 327 331 332 333 333 332 323 316 321 318 314
341 340 339 343 348 348 321 323 344 354 352 349 347 346 345 333 328 321 318 316 329 338 336 335 336 332 331 329 330 330 326 323 321 329 331 330 334 334 332 328 316 311 311
342 342 341 345 349 353 312 314 321 354 351 350 348 345 341 338 333 337 315 313 313 312 318 337 335 335 333 332 333 332 329 329 325 327 328 323 330 328 334 328 310 310 309
340 342 344 350 353 350 310 311 318 353 350 349 347 343 343 340 336 335 334 333 334 334 333 331 334 336 336 329 330 331 329 328 325 326 329 320 324 323 327 330 308 308 306
340 343 348 351 353 337 308 311 327 349 345 344 341 341 340 340 316 311 335 333 333 333 310 306 307 307 306 307 320 326 323 323 321 323 326 324 321 320 323 321 317 307 305
340 345 348 353 337 340 305 310 328 341 340 337 341 336 309 328 303 308 334 333 330 331 329 328 328 318 317 317 309 330 325 321 321 323 329 325 323 321 318 322 320 314 312
Wind_Speed
8 7 7 8 6 7 8 7 8 6 9 11 11 11 12 11 10 7 7 13 11 11 12 13 15 14 14 13 13 13 12 13 13 13 13 11 10 10 11 12 14 16 16
7 8 8 8 8 7 6 5 6 7 7 9 10 11 11 11 11 9 8 8 14 14 14 15 16 17 14 13 14 12 12 12 12 13 13 12 11 11 12 13 13 15 16
9 8 8 8 8 7 6 5 6 7 7 8 10 10 9 11 11 10 9 9 9 15 17 16 16 17 15 13 14 13 11 11 13 13 13 12 12 12 13 14 14 15 15
11 9 9 8 8 6 7 6 7 9 8 7 8 8 8 8 10 10 9 8 9 8 13 17 17 18 15 14 15 14 11 10 12 12 13 13 12 12 13 14 14 14 14
13 12 10 9 8 9 8 7 9 10 7 7 8 8 7 8 8 9 10 9 10 9 5 13 17 15 14 14 15 16 14 13 11 12 13 14 13 13 14 14 13 13 14
13 12 10 9 9 10 9 11 7 7 7 6 7 7 6 7 7 9 9 9 11 9 6 6 7 10 16 14 14 14 14 14 12 13 14 14 13 14 15 14 13 12 11
13 13 11 8 11 10 11 8 7 8 8 7 7 8 9 9 10 9 9 9 10 6 5 3 5 8 7 16 14 14 15 16 15 12 13 13 13 14 15 14 13 13 12
12 10 11 10 13 11 11 9 9 10 8 7 7 8 8 8 9 9 9 7 7 7 8 9 9 8 7 6 11 14 15 16 17 15 13 14 15 15 15 14 13 14 13
11 13 13 11 12 11 8 11 12 11 9 8 10 8 5 7 5 8 8 7 4 5 8 6 6 6 7 8 4 11 13 14 16 16 15 14 15 14 14 14 14 14 13
12 13 13 13 14 9 15 12 10 10 9 9 9 9 11 6 5 4 4 8 6 7 6 7 4 6 8 8 6 8 12 11 14 12 12 14 15 15 14 14 15 15 14
9 13 12 12 14 11 15 13 12 12 11 9 9 8 7 8 8 7 9 4 6 9 6 7 7 6 7 6 2 5 11 11 10 10 10 14 14 15 14 14 15 16 16
4 8 9 12 15 14 17 12 10 12 10 9 10 7 8 7 7 8 9 9 9 6 5 3 3 7 5 5 4 10 6 8 8 9 10 11 13 14 14 16 16 17 18
4 14 17 14 13 15 17 11 10 12 12 10 9 8 8 7 9 9 5 8 6 3 4 5 4 2 1 1 5 5 9 8 6 6 7 8 11 11 13 14 14 14 16
10 15 14 14 19 18 17 14 12 11 11 11 10 11 7 8 9 4 5 9 6 7 6 4 4 4 2 4 6 5 6 8 7 7 9 10 11 12 11 11 10 10 11
12 13 15 12 16 18 17 14 11 12 12 10 10 11 10 8 7 5 8 5 8 9 4 4 4 3 2 3 5 6 6 11 10 8 8 8 8 10 10 10 9 9 11
13 14 14 16 14 17 16 15 12 11 11 9 11 13 10 8 6 4 8 6 6 7 7 3 2 5 1 3 3 6 3 10 10 9 9 8 8 9 10 9 9 10 8
16 17 15 16 17 17 15 13 13 13 14 13 13 12 12 9 6 6 8 6 7 7 8 3 6 5 2 5 1 3 4 6 8 10 9 8 9 8 9 9 10 10 10
16 17 17 20 17 17 16 15 17 15 17 15 14 12 13 10 9 7 6 5 6 5 7 4 2 4 4 4 2 3 5 2 1 8 8 6 6 7 8 10 10 10 11
17 18 18 19 18 17 17 18 18 16 15 15 14 14 12 10 9 8 7 5 6 5 1 5 4 4 1 3 2 0 1 2 3 7 6 6 6 5 6 8 9 10 12
18 18 17 19 19 18 19 20 18 15 14 14 14 12 12 10 10 9 8 7 4 4 3 3 5 5 4 4 3 3 3 1 1 2 6 4 5 5 6 7 10 13 15
17 18 17 20 19 18 15 18 17 15 14 14 12 12 10 9 8 3 6 7 5 6 5 4 3 4 5 5 7 5 1 3 1 3 4 4 5 5 3 6 7 10 12
19 18 18 19 19 14 16 17 15 14 15 14 13 11 9 11 8 10 9 11 3 6 6 4 4 7 7 5 6 6 6 4 3 2 3 4 3 2 6 5 9 13 11
18 19 18 20 19 18 20 18 13 13 14 13 12 9 10 8 8 9 7 7 5 6 2 4 7 8 7 7 6 7 7 6 4 3 2 2 1 3 2 6 11 12 11
18 18 18 19 17 13 18 19 15 14 13 12 11 11 10 11 11 10 11 9 9 8 6 4 7 6 5 5 5 4 3 3 5 3 2 2 0 2 2 3 9 11 13
18 18 19 21 19 13 18 21 17 15 12 12 13 13 10 11 12 4 8 9 9 7 6 6 7 7 5 4 7 5 4 4 3 4 4 2 2 2 1 2 3 7 11
19 17 21 20 18 18 15 21 15 12 13 11 11 9 11 5 13 9 7 5 6 6 5 4 3 2 3 2 7 7 7 6 2 5 6 4 6 3 2 1 3 4 3
Wind_Direction
219 214 246 242 238 212 216 221 239 256 236 244 257 254 261 266 261 273 283 162 173 189 221 232 240 233 230 227 219 214 215 212 210 212 212 215 221 222 212 201 187 185 182
225 224 219 237 246 244 251 246 234 244 240 261 254 248 259 260 256 252 256 207 191 192 212 227 240 247 246 229 216 211 210 211 210 206 209 212 212 211 212 204 195 192 180
234 219 230 226 235 235 237 249 280 253 253 262 258 273 250 252 261 249 244 260 203 204 207 213 228 245 250 238 225 216 213 207 212 205 204 207 206 205 206 206 203 194 190
219 211 235 229 235 240 225 212 216 242 241 242 259 264 250 242 252 244 242 247 251 232 203 211 214 229 244 247 222 214 214 207 213 206 200 202 204 203 199 202 201 205 204
213 225 213 228 197 235 223 214 193 224 234 236 265 263 251 262 254 244 242 239 242 274 205 207 209 223 234 239 216 215 210 212 213 206 201 207 203 203 200 202 203 205 207
211 214 228 222 191 228 231 229 206 220 235 247 263 262 253 265 245 253 239 236 247 226 232 159 197 221 222 220 218 218 210 206 205 205 203 205 200 202 203 203 205 210 197
217 210 221 202 215 220 230 231 213 210 239 220 255 260 250 218 234 253 247 239 248 189 196 241 265 265 197 207 214 216 214 207 203 202 204 199 197 200 206 208 203 207 207
223 222 220 223 217 224 224 232 205 211 216 226 237 253 263 237 207 220 231 245 247 271 222 202 234 264 286 198 204 205 207 215 208 203 203 203 199 200 204 209 205 206 202
229 219 225 235 236 227 211 211 216 213 219 208 214 238 258 258 292 189 210 245 236 249 256 246 242 251 256 263 173 179 199 213 219 211 207 199 199 206 198 198 197 197 197
226 224 222 230 244 232 232 197 210 213 220 225 198 213 255 291 306 244 199 203 218 226 249 277 215 220 251 245 233 102 178 205 220 225 216 199 205 206 203 189 193 195 196
260 210 223 217 237 233 245 223 198 201 197 222 230 205 219 236 243 272 285 213 202 218 212 188 231 276 190 232 181 192 170 195 215 222 214 203 203 204 201 194 192 196 194
239 255 239 230 229 227 247 221 202 202 222 206 237 218 212 207 231 232 244 249 226 174 187 215 182 229 226 173 204 115 148 188 202 207 205 203 203 204 197 197 200 201 198
257 253 239 222 233 226 234 233 204 201 201 228 212 212 225 228 247 248 257 283 269 146 197 214 199 246 257 246 100 144 167 192 195 196 201 199 201 203 195 200 200 204 206
236 226 234 222 225 223 221 218 204 209 201 198 211 225 203 224 240 257 249 261 260 247 213 205 160 212 250 97 115 150 174 183 182 193 208 205 206 201 193 192 197 197 204
262 261 239 221 226 223 221 209 215 199 207 185 203 210 217 232 218 212 239 258 270 286 210 195 202 157 294 115 130 229 215 178 187 190 204 200 202 191 188 189 187 201 207
272 258 257 232 219 224 217 208 204 199 199 186 210 202 205 222 186 205 241 242 261 275 279 172 149 120 82 261 153 259 87 171 185 192 196 195 188 188 189 184 185 205 201
250 253 253 250 215 221 209 200 206 195 194 203 210 190 196 213 201 206 232 230 249 248 258 111 154 116 174 244 223 263 215 226 174 185 187 191 190 186 186 174 195 194 182
241 243 232 238 221 215 199 195 202 195 196 202 202 195 199 200 201 250 225 227 241 250 255 147 166 149 207 217 218 233 311 268 309 155 172 177 178 190 191 188 194 188 177
241 234 233 234 222 214 195 197 204 201 190 197 196 199 199 188 189 223 218 217 213 243 245 237 196 151 167 191 159 322 280 302 108 133 149 160 175 190 202 191 191 168 174
242 240 222 237 227 211 201 199 196 197 185 191 196 196 197 184 197 205 207 222 225 189 191 245 217 175 183 172 183 189 173 25 84 163 84 94 131 156 184 174 179 171 168
244 241 219 225 226 211 200 194 192 184 178 183 188 193 195 183 172 191 211 199 207 216 210 233 192 201 175 197 198 176 184 133 102 249 189 166 176 161 146 159 163 166 155
241 238 223 222 217 210 180 172 186 175 171 180 183 184 148 122 107 96 93 70 51 217 228 209 228 225 195 196 215 179 153 177 178 273 181 120 175 138 147 165 143 138 139
233 231 220 224 209 205 158 158 166 167 166 178 171 171 169 179 183 190 115 122 130 107 88 268 239 236 241 194 206 204 180 212 166 159 150 107 160 137 237 129 146 148 156
227 222 215 215 202 174 154 146 156 160 167 167 165 175 194 145 186 197 180 200 214 198 206 239 243 255 253 171 178 186 171 113 96 154 215 130 342 88 123 149 158 164 166
221 210 209 204 185 147 154 146 167 157 162 160 174 176 183 172 159 147 193 199 195 144 84 50 37 57 76 66 135 130 151 164 159 178 201 137 130 102 68 122 159 175 169
215 206 202 187 148 153 162 151 171 166 159 171 167 141 71 184 146 151 219 198 202 182 196 189 185 156 168 140 190 196 165 175 187 175 174 198 149 142 148 125 153 166 172